Location: ??????
(41.3794°N, 22.5014°E)
Time: 21:48:40
(UTC+00:00)

SAR-Lupe-1 - Pass Details

Date: 30 November 2020
Orbit: 480 x 485 km, 98.2° (Epoch: 26 November)

Event Time Altitude Azimuth Distance (km) Brightness Sun altitude
Exits shadow 16:37:22 31° 28° (NNE) 872 5.0 -17.5°
Maximum altitude 16:38:56 67° 102° (ESE) 529 3.9 -17.8°
Drops below altitude 10° 16:42:29 10° 186° (S) 1,662 7.0 -18.5°
Sets 16:44:32 0° 189° (S) 2,536 8.0 -18.9°
